| time (UTC) | temp F | wind direction | speed MPH | gust MPH | rain 1hr in | rain 24hr in | rain mn in | humidity % | barometer mb |
| 20260508023329 | 48 | 324 | 1.0 | 0.0 | 0.00 | 0.00 | 0.00 | 59 | 1011.5 |
| 20260508022827 | 48 | 302 | 0.0 | 0.0 | 0.00 | 0.00 | 0.00 | 59 | 1011.5 |
| 20260508022322 | 48 | 338 | 0.0 | 0.0 | 0.00 | 0.00 | 0.00 | 59 | 1011.5 |
| 20260508021820 | 48 | 336 | 1.0 | 0.0 | 0.00 | 0.00 | 0.00 | 60 | 1011.4 |
| 20260508021323 | 48 | 332 | 1.0 | 0.0 | 0.00 | 0.00 | 0.00 | 59 | 1011.3 |
| 20260508020811 | 48 | 350 | 1.0 | 0.0 | 0.00 | 0.00 | 0.00 | 60 | 1011.3 |
| 20260508020316 | 48 | 211 | 2.0 | 0.0 | 0.00 | 0.00 | 0.00 | 60 | 1011.2 |
| 20260508015841 | 49 | 306 | 3.0 | 0.0 | 0.00 | 0.00 | 0.00 | 59 | 1011.2 |
| 20260508015420 | 48 | 34 | 3.0 | 0.0 | 0.00 | 0.00 | 0.00 | 60 | 1011.2 |
| 20260508014827 | 49 | 345 | 2.0 | 0.0 | 0.00 | 0.00 | 0.00 | 59 | 1011.0 |
| 20260508014320 | 49 | 360 | 1.0 | 0.0 | 0.00 | 0.00 | 0.00 | 58 | 1011.0 |
| 20260508013818 | 49 | 118 | 2.0 | 0.0 | 0.00 | 0.00 | 0.00 | 58 | 1010.9 |
| 20260508013316 | 49 | 219 | 3.0 | 0.0 | 0.00 | 0.00 | 0.00 | 58 | 1010.9 |
| 20260508012837 | 49 | 347 | 2.0 | 0.0 | 0.00 | 0.00 | 0.00 | 59 | 1010.9 |
| 20260508012324 | 49 | 340 | 2.0 | 0.0 | 0.00 | 0.00 | 0.00 | 58 | 1010.9 |
| 20260508011824 | 49 | 269 | 2.0 | 0.0 | 0.00 | 0.00 | 0.00 | 57 | 1010.7 |
| 20260508011321 | 49 | 355 | 0.0 | 0.0 | 0.00 | 0.00 | 0.00 | 57 | 1010.6 |
| 20260508010818 | 50 | 337 | 1.0 | 0.0 | 0.00 | 0.00 | 0.00 | 57 | 1010.7 |
| 20260508010323 | 50 | 327 | 1.0 | 0.0 | 0.00 | 0.00 | 0.00 | 57 | 1010.5 |
| 20260508005815 | 50 | 338 | 1.0 | 0.0 | 0.00 | 0.00 | 0.00 | 56 | 1010.5 |
| 20260508005334 | 50 | 286 | 2.0 | 0.0 | 0.00 | 0.00 | 0.00 | 55 | 1010.4 |
| 20260508004838 | 51 | 299 | 3.0 | 0.0 | 0.00 | 0.00 | 0.00 | 55 | 1010.3 |
| 20260508004312 | 51 | 302 | 3.0 | 0.0 | 0.00 | 0.00 | 0.00 | 55 | 1010.3 |
| 20260508003835 | 51 | 11 | 2.0 | 0.0 | 0.00 | 0.00 | 0.00 | 54 | 1010.2 |
| 20260508003332 | 51 | 298 | 3.0 | 0.0 | 0.00 | 0.00 | 0.00 | 54 | 1010.1 |
| 20260508002821 | 52 | 300 | 4.0 | 0.0 | 0.00 | 0.00 | 0.00 | 55 | 1010.2 |
| 20260508002321 | 52 | 274 | 3.0 | 0.0 | 0.00 | 0.00 | 0.00 | 53 | 1010.0 |
| 20260508001820 | 52 | 17 | 3.0 | 0.0 | 0.00 | 0.00 | 0.00 | 53 | 1010.0 |
| 20260508001330 | 52 | 22 | 5.0 | 0.0 | 0.00 | 0.00 | 0.00 | 52 | 1009.9 |
| 20260508000833 | 52 | 275 | 7.0 | 0.0 | 0.00 | 0.00 | 0.00 | 52 | 1009.8 |
| 20260508000331 | 52 | 263 | 7.0 | 0.0 | 0.00 | 0.00 | 0.00 | 51 | 1009.8 |
| 20260507235822 | 52 | 263 | 7.0 | 0.0 | 0.00 | 0.00 | 0.00 | 51 | 1009.7 |
| 20260507235322 | 53 | 266 | 8.0 | 0.0 | 0.00 | 0.00 | 0.00 | 51 | 1009.6 |
| 20260507234823 | 53 | 275 | 7.0 | 0.0 | 0.00 | 0.00 | 0.00 | 50 | 1009.6 |
| 20260507234343 | 53 | 247 | 6.0 | 0.0 | 0.00 | 0.00 | 0.00 | 49 | 1009.3 |
| 20260507233830 | 53 | 271 | 5.0 | 0.0 | 0.00 | 0.00 | 0.00 | 50 | 1009.3 |
| 20260507233329 | 53 | 338 | 4.0 | 0.0 | 0.00 | 0.00 | 0.00 | 48 | 1009.2 |
| 20260507232824 | 54 | 264 | 5.0 | 0.0 | 0.00 | 0.00 | 0.00 | 50 | 1009.2 |
| 20260507232321 | 54 | 293 | 5.0 | 0.0 | 0.00 | 0.00 | 0.00 | 50 | 1009.2 |
| 20260507231819 | 54 | 231 | 5.0 | 0.0 | 0.00 | 0.00 | 0.00 | 49 | 1009.1 |
| 20260507231343 | 54 | 253 | 5.0 | 0.0 | 0.00 | 0.00 | 0.00 | 50 | 1009.1 |
| 20260507230832 | 55 | 321 | 4.0 | 0.0 | 0.00 | 0.00 | 0.00 | 51 | 1009.0 |
| 20260507230333 | 55 | 263 | 3.0 | 0.0 | 0.00 | 0.00 | 0.00 | 52 | 1008.8 |
| 20260507225821 | 55 | 290 | 3.0 | 0.0 | 0.00 | 0.00 | 0.00 | 53 | 1008.7 |
| 20260507225321 | 55 | 282 | 5.0 | 0.0 | 0.00 | 0.00 | 0.00 | 53 | 1008.6 |
| 20260507224818 | 55 | 259 | 5.0 | 0.0 | 0.00 | 0.00 | 0.00 | 51 | 1008.6 |
| 20260507224327 | 56 | 254 | 5.0 | 0.0 | 0.00 | 0.00 | 0.00 | 51 | 1008.5 |
| 20260507223825 | 56 | 274 | 4.0 | 0.0 | 0.00 | 0.00 | 0.00 | 52 | 1008.5 |
| 20260507223326 | 56 | 258 | 3.0 | 0.0 | 0.00 | 0.00 | 0.00 | 53 | 1008.6 |
| 20260507222815 | 55 | 306 | 3.0 | 0.0 | 0.00 | 0.00 | 0.00 | 53 | 1008.4 |
| 20260507222316 | 56 | 5 | 3.0 | 0.0 | 0.00 | 0.00 | 0.00 | 53 | 1008.3 |
| 20260507221833 | 56 | 109 | 4.0 | 0.0 | 0.00 | 0.00 | 0.00 | 52 | 1008.3 |
| 20260507221332 | 57 | 302 | 6.0 | 0.0 | 0.00 | 0.00 | 0.00 | 52 | 1008.1 |
| 20260507220823 | 57 | 273 | 7.0 | 0.0 | 0.00 | 0.00 | 0.00 | 50 | 1008.0 |
| 20260507220320 | 58 | 275 | 6.0 | 0.0 | 0.00 | 0.00 | 0.00 | 48 | 1007.9 |
| 20260507215841 | 58 | 313 | 4.0 | 0.0 | 0.00 | 0.00 | 0.00 | 50 | 1007.9 |
| 20260507215329 | 58 | 311 | 2.0 | 0.0 | 0.00 | 0.00 | 0.00 | 51 | 1007.9 |
| 20260507214828 | 57 | 13 | 4.0 | 0.0 | 0.00 | 0.00 | 0.00 | 53 | 1007.8 |
| 20260507214335 | 58 | 307 | 4.0 | 0.0 | 0.00 | 0.00 | 0.00 | 52 | 1007.7 |
| 20260507213824 | 58 | 30 | 3.0 | 0.0 | 0.00 | 0.00 | 0.00 | 54 | 1007.5 |
| 20260507213321 | 58 | 299 | 3.0 | 0.0 | 0.00 | 0.00 | 0.00 | 52 | 1007.5 |
| 20260507212838 | 58 | 346 | 4.0 | 0.0 | 0.00 | 0.00 | 0.00 | 52 | 1007.5 |
| 20260507212333 | 58 | 338 | 4.0 | 0.0 | 0.00 | 0.00 | 0.00 | 53 | 1007.6 |
| 20260507211831 | 59 | 355 | 4.0 | 0.0 | 0.00 | 0.00 | 0.00 | 50 | 1007.5 |
| 20260507211328 | 59 | 263 | 5.0 | 0.0 | 0.00 | 0.00 | 0.00 | 50 | 1007.5 |
| 20260507210826 | 59 | 311 | 5.0 | 0.0 | 0.00 | 0.00 | 0.00 | 51 | 1007.4 |
| 20260507210324 | 58 | 17 | 3.0 | 0.0 | 0.00 | 0.00 | 0.00 | 52 | 1007.4 |
| 20260507205814 | 59 | 326 | 2.0 | 0.0 | 0.00 | 0.00 | 0.00 | 50 | 1007.4 |
| 20260507205315 | 59 | 327 | 4.0 | 0.0 | 0.00 | 0.00 | 0.00 | 51 | 1007.4 |
| 20260507204815 | 60 | 223 | 5.0 | 0.0 | 0.00 | 0.00 | 0.00 | 50 | 1007.4 |
| 20260507204336 | 60 | 9 | 5.0 | 0.0 | 0.00 | 0.00 | 0.00 | 52 | 1007.2 |
| 20260507203827 | 60 | 309 | 5.0 | 0.0 | 0.00 | 0.00 | 0.00 | 55 | 1007.3 |
| 20260507203326 | 61 | 319 | 5.0 | 0.0 | 0.00 | 0.00 | 0.00 | 50 | 1007.3 |
| 20260507202814 | 61 | 304 | 4.0 | 0.0 | 0.00 | 0.00 | 0.00 | 57 | 1007.1 |
| 20260507202317 | 60 | 285 | 6.0 | 0.0 | 0.00 | 0.00 | 0.00 | 52 | 1007.2 |
| 20260507201818 | 60 | 298 | 7.0 | 0.0 | 0.00 | 0.00 | 0.00 | 51 | 1007.3 |
| 20260507201338 | 60 | 32 | 5.0 | 0.0 | 0.00 | 0.00 | 0.00 | 54 | 1007.2 |
| 20260507200826 | 61 | 339 | 6.0 | 0.0 | 0.00 | 0.00 | 0.00 | 54 | 1007.2 |
| 20260507200324 | 61 | 5 | 6.0 | 0.0 | 0.00 | 0.00 | 0.00 | 52 | 1007.1 |
| 20260507195841 | 62 | 21 | 3.0 | 0.0 | 0.00 | 0.00 | 0.00 | 51 | 1007.1 |
| 20260507195329 | 62 | 269 | 4.0 | 0.0 | 0.00 | 0.00 | 0.00 | 57 | 1007.1 |
| 20260507194829 | 61 | 256 | 5.0 | 0.0 | 0.00 | 0.00 | 0.00 | 53 | 1007.1 |
| 20260507194329 | 61 | 272 | 5.0 | 0.0 | 0.00 | 0.00 | 0.00 | 55 | 1007.1 |
| 20260507193822 | 61 | 210 | 4.0 | 0.0 | 0.00 | 0.00 | 0.00 | 53 | 1007.3 |
| 20260507193326 | 61 | 288 | 3.0 | 0.0 | 0.00 | 0.00 | 0.00 | 56 | 1007.5 |
| 20260507192843 | 61 | 344 | 4.0 | 0.0 | 0.00 | 0.00 | 0.00 | 54 | 1007.5 |
| 20260507192315 | 61 | 335 | 4.0 | 0.0 | 0.00 | 0.00 | 0.00 | 55 | 1007.4 |
| 20260507191833 | 61 | 26 | 4.0 | 0.0 | 0.00 | 0.00 | 0.00 | 55 | 1007.3 |
| 20260507191334 | 61 | 348 | 5.0 | 0.0 | 0.00 | 0.00 | 0.00 | 51 | 1007.4 |
| 20260507190822 | 61 | 307 | 6.0 | 0.0 | 0.00 | 0.00 | 0.00 | 57 | 1007.5 |
| 20260507190324 | 61 | 194 | 7.0 | 0.0 | 0.00 | 0.00 | 0.00 | 59 | 1007.5 |
| 20260507185811 | 60 | 252 | 9.0 | 0.0 | 0.00 | 0.00 | 0.00 | 61 | 1007.4 |
| 20260507185332 | 61 | 234 | 8.0 | 0.0 | 0.00 | 0.00 | 0.00 | 62 | 1007.5 |
| 20260507184831 | 60 | 228 | 5.0 | 0.0 | 0.00 | 0.00 | 0.00 | 58 | 1007.7 |
| 20260507184328 | 60 | 236 | 6.0 | 0.0 | 0.00 | 0.00 | 0.00 | 60 | 1007.8 |
| 20260507183817 | 60 | 296 | 7.0 | 0.0 | 0.00 | 0.00 | 0.00 | 64 | 1007.8 |
| 20260507183315 | 60 | 249 | 6.0 | 0.0 | 0.00 | 0.00 | 0.00 | 64 | 1007.6 |
| 20260507182834 | 59 | 333 | 5.0 | 0.0 | 0.00 | 0.00 | 0.00 | 66 | 1007.6 |
| 20260507182334 | 58 | 294 | 5.0 | 0.0 | 0.00 | 0.00 | 0.00 | 63 | 1007.7 |
| 20260507181832 | 57 | 215 | 3.0 | 0.0 | 0.00 | 0.00 | 0.00 | 66 | 1007.7 |
| 20260507181328 | 56 | 204 | 2.0 | 0.0 | 0.00 | 0.00 | 0.00 | 68 | 1007.8 |
| 20260507180825 | 56 | 355 | 3.0 | 0.0 | 0.00 | 0.00 | 0.00 | 68 | 1007.9 |
| 20260507180323 | 56 | 355 | 5.0 | 0.0 | 0.00 | 0.00 | 0.00 | 67 | 1008.1 |
| 20260507175820 | 57 | 360 | 4.0 | 0.0 | 0.00 | 0.00 | 0.00 | 65 | 1008.1 |
| 20260507175324 | 57 | 339 | 2.0 | 0.0 | 0.00 | 0.00 | 0.00 | 68 | 1008.1 |
| 20260507174822 | 56 | 248 | 2.0 | 0.0 | 0.00 | 0.00 | 0.00 | 68 | 1008.1 |
| 20260507174319 | 56 | 343 | 3.0 | 0.0 | 0.00 | 0.00 | 0.00 | 70 | 1008.2 |
| 20260507173816 | 56 | 332 | 5.0 | 0.0 | 0.00 | 0.00 | 0.00 | 70 | 1008.4 |
| 20260507173333 | 55 | 51 | 7.0 | 0.0 | 0.00 | 0.00 | 0.00 | 68 | 1008.4 |
| 20260507172826 | 55 | 5 | 5.0 | 0.0 | 0.00 | 0.00 | 0.00 | 68 | 1008.4 |
| 20260507172323 | 55 | 5 | 3.0 | 0.0 | 0.00 | 0.00 | 0.00 | 69 | 1008.4 |
| 20260507171821 | 55 | 19 | 3.0 | 0.0 | 0.00 | 0.00 | 0.00 | 69 | 1008.5 |
| 20260507171315 | 55 | 360 | 4.0 | 0.0 | 0.00 | 0.00 | 0.00 | 70 | 1008.7 |
| 20260507170834 | 55 | 11 | 3.0 | 0.0 | 0.00 | 0.00 | 0.00 | 69 | 1008.6 |
| 20260507170314 | 55 | 327 | 2.0 | 0.0 | 0.00 | 0.00 | 0.00 | 71 | 1008.6 |
| 20260507165827 | 55 | 298 | 2.0 | 0.0 | 0.00 | 0.00 | 0.00 | 70 | 1008.8 |
| 20260507165330 | 55 | 46 | 5.0 | 0.0 | 0.00 | 0.00 | 0.00 | 69 | 1008.8 |
| 20260507164828 | 55 | 19 | 5.0 | 0.0 | 0.00 | 0.00 | 0.00 | 68 | 1008.9 |
| 20260507164322 | 55 | 339 | 3.0 | 0.0 | 0.00 | 0.00 | 0.00 | 68 | 1008.9 |
| 20260507163820 | 56 | 341 | 2.0 | 0.0 | 0.00 | 0.00 | 0.00 | 68 | 1008.8 |
| 20260507163340 | 56 | 319 | 3.0 | 0.0 | 0.00 | 0.00 | 0.00 | 66 | 1009.1 |
| 20260507162831 | 56 | 355 | 3.0 | 0.0 | 0.00 | 0.00 | 0.00 | 69 | 1009.1 |
| 20260507162327 | 56 | 312 | 4.0 | 0.0 | 0.00 | 0.00 | 0.00 | 70 | 1009.2 |
| 20260507161831 | 56 | 300 | 5.0 | 0.0 | 0.00 | 0.00 | 0.00 | 68 | 1009.2 |
| 20260507161319 | 56 | 5 | 4.0 | 0.0 | 0.00 | 0.00 | 0.00 | 68 | 1009.2 |
| 20260507160820 | 57 | 20 | 4.0 | 0.0 | 0.00 | 0.00 | 0.00 | 70 | 1009.3 |
| 20260507160334 | 56 | 273 | 4.0 | 0.0 | 0.00 | 0.00 | 0.00 | 73 | 1009.5 |
| 20260507155824 | 56 | 296 | 5.0 | 0.0 | 0.00 | 0.00 | 0.00 | 69 | 1009.4 |
| 20260507155321 | 55 | 355 | 5.0 | 0.0 | 0.00 | 0.00 | 0.00 | 68 | 1009.5 |
| 20260507154824 | 55 | 5 | 4.0 | 0.0 | 0.00 | 0.00 | 0.00 | 69 | 1009.4 |
| 20260507154316 | 54 | 319 | 4.0 | 0.0 | 0.00 | 0.00 | 0.00 | 71 | 1009.7 |
| 20260507153820 | 54 | 344 | 6.0 | 0.0 | 0.00 | 0.00 | 0.00 | 69 | 1009.7 |
| 20260507153338 | 54 | 313 | 5.0 | 0.0 | 0.00 | 0.00 | 0.00 | 69 | 1009.6 |
| 20260507152852 | 54 | 26 | 6.0 | 6.0 | 0.00 | 0.00 | 0.00 | 70 | 1009.7 |
| 20260507152826 | 54 | 9 | 6.0 | 0.0 | 0.00 | 0.00 | 0.00 | 71 | 1009.8 |
| 20260507152330 | 54 | 26 | 6.0 | 0.0 | 0.00 | 0.00 | 0.00 | 70 | 1009.7 |
| 20260507152235 | 54 | 346 | 5.0 | 0.0 | 0.00 | 0.00 | 0.00 | 69 | 1009.7 |
| 20260507151830 | 54 | 346 | 5.0 | 0.0 | 0.00 | 0.00 | 0.00 | 69 | 1009.7 |
| 20260507151322 | 54 | 351 | 3.0 | 0.0 | 0.00 | 0.00 | 0.00 | 68 | 1009.8 |
| 20260507150818 | 54 | 355 | 3.0 | 0.0 | 0.00 | 0.00 | 0.00 | 72 | 1009.8 |
| 20260507150320 | 53 | 9 | 3.0 | 0.0 | 0.00 | 0.00 | 0.00 | 73 | 1009.8 |
| 20260507145833 | 52 | 325 | 2.0 | 0.0 | 0.00 | 0.00 | 0.00 | 72 | 1009.8 |
| 20260507145331 | 52 | 49 | 3.0 | 0.0 | 0.00 | 0.00 | 0.00 | 75 | 1009.8 |
| 20260507144834 | 51 | 348 | 4.0 | 0.0 | 0.00 | 0.00 | 0.00 | 77 | 1009.9 |
| 20260507144331 | 50 | 76 | 4.0 | 0.0 | 0.00 | 0.00 | 0.00 | 75 | 1009.9 |
| 20260507143828 | 50 | 332 | 4.0 | 0.0 | 0.00 | 0.00 | 0.00 | 76 | 1010.0 |
| 20260507143329 | 49 | 36 | 3.0 | 0.0 | 0.00 | 0.00 | 0.00 | 75 | 1010.1 |
| 20260507142817 | 49 | 42 | 3.0 | 0.0 | 0.00 | 0.00 | 0.00 | 78 | 1010.2 |
| 20260507142333 | 49 | 5 | 3.0 | 0.0 | 0.00 | 0.00 | 0.00 | 80 | 1010.2 |
| 20260507141834 | 49 | 50 | 3.0 | 0.0 | 0.00 | 0.00 | 0.00 | 81 | 1010.2 |
| 20260507141321 | 49 | 5 | 2.0 | 0.0 | 0.00 | 0.00 | 0.00 | 82 | 1010.4 |
| 20260507140823 | 49 | 331 | 1.0 | 0.0 | 0.00 | 0.00 | 0.00 | 82 | 1010.4 |
| 20260507140320 | 48 | 326 | 2.0 | 0.0 | 0.00 | 0.00 | 0.00 | 83 | 1010.5 |
| 20260507135839 | 48 | 360 | 1.0 | 0.0 | 0.00 | 0.00 | 0.00 | 82 | 1010.5 |
| 20260507135328 | 48 | 348 | 1.0 | 0.0 | 0.00 | 0.00 | 0.00 | 82 | 1010.6 |
| 20260507134825 | 48 | 322 | 3.0 | 0.0 | 0.00 | 0.00 | 0.00 | 81 | 1010.6 |
| 20260507134317 | 48 | 5 | 3.0 | 0.0 | 0.00 | 0.00 | 0.00 | 80 | 1010.6 |
| 20260507133834 | 48 | 348 | 3.0 | 0.0 | 0.00 | 0.00 | 0.00 | 82 | 1011.3 |
| 20260507133331 | 48 | 331 | 4.0 | 0.0 | 0.00 | 0.00 | 0.00 | 83 | 1011.5 |
| 20260507132819 | 48 | 343 | 3.0 | 0.0 | 0.00 | 0.00 | 0.00 | 85 | 1011.5 |
| 20260507132319 | 48 | 24 | 3.0 | 0.0 | 0.00 | 0.00 | 0.00 | 86 | 1011.4 |
| 20260507131819 | 48 | 349 | 2.0 | 0.0 | 0.00 | 0.00 | 0.00 | 86 | 1011.6 |
| 20260507131340 | 48 | 322 | 4.0 | 0.0 | 0.00 | 0.00 | 0.00 | 86 | 1011.5 |
| 20260507130830 | 48 | 307 | 5.0 | 0.0 | 0.00 | 0.00 | 0.00 | 86 | 1011.5 |
| 20260507130329 | 48 | 350 | 4.0 | 0.0 | 0.00 | 0.00 | 0.00 | 86 | 1011.6 |
| 20260507125818 | 48 | 5 | 3.0 | 0.0 | 0.00 | 0.00 | 0.00 | 86 | 1011.5 |
| 20260507125316 | 48 | 340 | 3.0 | 0.0 | 0.00 | 0.00 | 0.00 | 87 | 1011.5 |
| 20260507124833 | 48 | 336 | 3.0 | 0.0 | 0.00 | 0.00 | 0.00 | 87 | 1011.5 |
| 20260507124337 | 48 | 331 | 3.0 | 0.0 | 0.00 | 0.00 | 0.00 | 87 | 1011.6 |
| 20260507123828 | 48 | 350 | 4.0 | 0.0 | 0.00 | 0.00 | 0.00 | 88 | 1011.6 |
| 20260507123330 | 48 | 360 | 4.0 | 0.0 | 0.00 | 0.00 | 0.00 | 87 | 1011.6 |
| 20260507122821 | 48 | 34 | 4.0 | 0.0 | 0.00 | 0.00 | 0.00 | 88 | 1011.5 |
| 20260507122322 | 48 | 351 | 3.0 | 0.0 | 0.00 | 0.00 | 0.00 | 88 | 1011.4 |
| 20260507121823 | 49 | 355 | 2.0 | 0.0 | 0.00 | 0.00 | 0.00 | 88 | 1011.4 |
| 20260507121313 | 49 | 283 | 1.0 | 0.0 | 0.00 | 0.00 | 0.00 | 88 | 1011.3 |
| 20260507120813 | 49 | 346 | 2.0 | 0.0 | 0.00 | 0.00 | 0.00 | 88 | 1011.3 |
| 20260507120320 | 49 | 360 | 3.0 | 0.0 | 0.00 | 0.00 | 0.00 | 88 | 1011.3 |
| 20260507115827 | 49 | 355 | 3.0 | 0.0 | 0.00 | 0.00 | 0.00 | 88 | 1011.2 |
| 20260507115328 | 49 | 309 | 2.0 | 0.0 | 0.00 | 0.00 | 0.00 | 88 | 1011.1 |
| 20260507114831 | 49 | 13 | 2.0 | 0.0 | 0.00 | 0.00 | 0.00 | 88 | 1011.1 |
| 20260507114320 | 49 | 71 | 2.0 | 0.0 | 0.00 | 0.00 | 0.00 | 88 | 1011.1 |
| 20260507113820 | 49 | 320 | 2.0 | 0.0 | 0.00 | 0.00 | 0.00 | 89 | 1010.9 |
| 20260507113318 | 49 | 5 | 2.0 | 0.0 | 0.00 | 0.00 | 0.00 | 89 | 1011.0 |
| 20260507112831 | 49 | 5 | 3.0 | 0.0 | 0.00 | 0.00 | 0.00 | 89 | 1010.9 |
| 20260507112328 | 49 | 5 | 2.0 | 0.0 | 0.00 | 0.00 | 0.00 | 89 | 1010.7 |
| 20260507111826 | 49 | 38 | 2.0 | 0.0 | 0.00 | 0.00 | 0.00 | 89 | 1010.6 |
| 20260507111320 | 49 | 11 | 3.0 | 0.0 | 0.00 | 0.00 | 0.00 | 89 | 1010.6 |
| 20260507110822 | 49 | 331 | 3.0 | 0.0 | 0.00 | 0.00 | 0.00 | 89 | 1010.3 |
| 20260507110316 | 49 | 334 | 2.0 | 0.0 | 0.00 | 0.00 | 0.00 | 88 | 1010.2 |
| 20260507105818 | 50 | 360 | 3.0 | 0.0 | 0.00 | 0.00 | 0.00 | 89 | 1010.5 |
| 20260507105322 | 49 | 271 | 4.0 | 0.0 | 0.00 | 0.00 | 0.00 | 89 | 1010.4 |
| 20260507104814 | 50 | 32 | 3.0 | 0.0 | 0.00 | 0.00 | 0.00 | 88 | 1010.3 |
| 20260507104315 | 50 | 13 | 2.0 | 0.0 | 0.00 | 0.00 | 0.00 | 89 | 1010.3 |
| 20260507103833 | 50 | 24 | 2.0 | 0.0 | 0.00 | 0.00 | 0.00 | 89 | 1010.1 |
| 20260507103331 | 50 | 5 | 3.0 | 0.0 | 0.00 | 0.00 | 0.00 | 90 | 1010.3 |
| 20260507102828 | 50 | 31 | 3.0 | 0.0 | 0.00 | 0.00 | 0.00 | 90 | 1010.0 |
| 20260507102324 | 50 | 19 | 3.0 | 0.0 | 0.00 | 0.00 | 0.00 | 90 | 1010.1 |
| 20260507101818 | 50 | 55 | 2.0 | 0.0 | 0.00 | 0.00 | 0.00 | 90 | 1010.1 |
| 20260507101319 | 50 | 34 | 2.0 | 0.0 | 0.00 | 0.00 | 0.00 | 90 | 1010.2 |
| 20260507100836 | 50 | 14 | 1.0 | 0.0 | 0.00 | 0.00 | 0.00 | 91 | 1010.3 |
| 20260507100331 | 50 | 51 | 2.0 | 0.0 | 0.00 | 0.00 | 0.00 | 91 | 1010.3 |
| 20260507095828 | 50 | 51 | 3.0 | 0.0 | 0.00 | 0.00 | 0.00 | 91 | 1010.3 |
| 20260507095326 | 50 | 13 | 3.0 | 0.0 | 0.00 | 0.00 | 0.00 | 91 | 1010.2 |
| 20260507094814 | 50 | 28 | 3.0 | 0.0 | 0.00 | 0.00 | 0.00 | 91 | 1010.2 |
| 20260507094332 | 50 | 41 | 3.0 | 0.0 | 0.00 | 0.00 | 0.00 | 90 | 1010.1 |
| 20260507093830 | 50 | 66 | 3.0 | 0.0 | 0.00 | 0.00 | 0.00 | 91 | 1010.1 |
| 20260507093330 | 50 | 62 | 4.0 | 0.0 | 0.00 | 0.00 | 0.00 | 91 | 1010.0 |
| 20260507092821 | 50 | 45 | 4.0 | 0.0 | 0.00 | 0.00 | 0.00 | 90 | 1010.1 |
| 20260507092322 | 50 | 21 | 4.0 | 0.0 | 0.00 | 0.00 | 0.00 | 90 | 1010.1 |
| 20260507091812 | 50 | 24 | 5.0 | 0.0 | 0.00 | 0.00 | 0.00 | 90 | 1009.9 |
| 20260507091328 | 50 | 32 | 5.0 | 0.0 | 0.00 | 0.00 | 0.00 | 90 | 1009.8 |
| 20260507090815 | 50 | 5 | 4.0 | 0.0 | 0.00 | 0.00 | 0.00 | 90 | 1009.8 |
| 20260507090320 | 51 | 39 | 4.0 | 0.0 | 0.00 | 0.00 | 0.00 | 90 | 1009.7 |
| 20260507085824 | 51 | 9 | 3.0 | 0.0 | 0.00 | 0.00 | 0.00 | 90 | 1009.7 |
| 20260507085327 | 51 | 31 | 3.0 | 0.0 | 0.00 | 0.00 | 0.00 | 90 | 1009.7 |
| 20260507084818 | 51 | 44 | 3.0 | 0.0 | 0.00 | 0.00 | 0.00 | 89 | 1009.8 |
| 20260507084314 | 51 | 64 | 3.0 | 0.0 | 0.00 | 0.00 | 0.00 | 89 | 1009.5 |
| 20260507083832 | 51 | 23 | 3.0 | 0.0 | 0.00 | 0.00 | 0.00 | 89 | 1009.9 |
| 20260507083327 | 51 | 57 | 3.0 | 0.0 | 0.00 | 0.00 | 0.00 | 89 | 1009.8 |
| 20260507082825 | 51 | 62 | 3.0 | 0.0 | 0.00 | 0.00 | 0.00 | 88 | 1009.8 |
| 20260507082327 | 51 | 35 | 4.0 | 0.0 | 0.00 | 0.00 | 0.00 | 88 | 1009.9 |
| 20260507081822 | 51 | 52 | 4.0 | 0.0 | 0.00 | 0.00 | 0.00 | 88 | 1009.6 |
| 20260507081320 | 52 | 38 | 4.0 | 0.0 | 0.00 | 0.00 | 0.00 | 88 | 1009.5 |
| 20260507080841 | 52 | 42 | 3.0 | 0.0 | 0.00 | 0.00 | 0.00 | 88 | 1009.9 |
| 20260507080329 | 52 | 19 | 3.0 | 0.0 | 0.00 | 0.00 | 0.00 | 87 | 1010.0 |
| 20260507075830 | 52 | 32 | 4.0 | 0.0 | 0.00 | 0.00 | 0.00 | 87 | 1009.9 |
| 20260507075328 | 52 | 26 | 3.0 | 0.0 | 0.00 | 0.00 | 0.00 | 87 | 1010.0 |
| 20260507074821 | 52 | 45 | 4.0 | 0.0 | 0.00 | 0.00 | 0.00 | 87 | 1010.0 |
| 20260507074324 | 52 | 5 | 4.0 | 0.0 | 0.00 | 0.00 | 0.00 | 87 | 1010.1 |
| 20260507073816 | 52 | 22 | 2.0 | 0.0 | 0.00 | 0.00 | 0.00 | 87 | 1010.1 |
| 20260507073317 | 52 | 46 | 1.0 | 0.0 | 0.00 | 0.00 | 0.00 | 87 | 1010.1 |
| 20260507072815 | 52 | 59 | 2.0 | 0.0 | 0.00 | 0.00 | 0.00 | 87 | 1010.1 |
| 20260507072335 | 52 | 39 | 3.0 | 0.0 | 0.00 | 0.00 | 0.00 | 87 | 1010.0 |
| 20260507071829 | 52 | 40 | 3.0 | 0.0 | 0.00 | 0.00 | 0.00 | 87 | 1010.1 |
| 20260507071330 | 53 | 35 | 3.0 | 0.0 | 0.00 | 0.00 | 0.00 | 87 | 1009.8 |
| 20260507070828 | 53 | 9 | 3.0 | 0.0 | 0.00 | 0.00 | 0.00 | 87 | 1010.0 |
| 20260507070317 | 53 | 31 | 2.0 | 0.0 | 0.00 | 0.00 | 0.00 | 87 | 1009.9 |
| 20260507065814 | 54 | 16 | 2.0 | 0.0 | 0.00 | 0.00 | 0.00 | 86 | 1009.8 |
| 20260507065332 | 54 | 26 | 3.0 | 0.0 | 0.00 | 0.00 | 0.00 | 86 | 1009.6 |
| 20260507064833 | 54 | 360 | 2.0 | 0.0 | 0.00 | 0.00 | 0.00 | 86 | 1009.5 |
| 20260507064324 | 55 | 355 | 1.0 | 0.0 | 0.00 | 0.00 | 0.00 | 86 | 1009.5 |
| 20260507063821 | 55 | 12 | 0.0 | 0.0 | 0.00 | 0.00 | 0.00 | 86 | 1009.5 |
| 20260507063325 | 55 | 23 | 0.0 | 0.0 | 0.00 | 0.00 | 0.00 | 85 | 1009.6 |
| 20260507062823 | 55 | 23 | 1.0 | 0.0 | 0.00 | 0.00 | 0.00 | 85 | 1009.5 |
| 20260507062322 | 55 | 275 | 4.0 | 0.0 | 0.00 | 0.00 | 0.00 | 86 | 1009.7 |
| 20260507061825 | 55 | 231 | 4.0 | 0.0 | 0.00 | 0.00 | 0.00 | 86 | 1009.5 |
| 20260507061327 | 55 | 232 | 2.0 | 0.0 | 0.00 | 0.00 | 0.00 | 87 | 1009.8 |
| 20260507060841 | 55 | 267 | 1.0 | 0.0 | 0.00 | 0.00 | 0.00 | 87 | 1009.7 |
| 20260507060329 | 55 | 267 | 2.0 | 0.0 | 0.00 | 0.00 | 0.00 | 87 | 1009.7 |
| 20260507055828 | 55 | 300 | 2.0 | 0.0 | 0.00 | 0.00 | 0.00 | 88 | 1009.6 |
| 20260507055325 | 55 | 277 | 4.0 | 0.0 | 0.00 | 0.00 | 0.00 | 88 | 1009.6 |
| 20260507054842 | 55 | 244 | 5.0 | 0.0 | 0.00 | 0.00 | 0.00 | 88 | 1009.6 |
| 20260507054331 | 56 | 227 | 5.0 | 0.0 | 0.00 | 0.00 | 0.00 | 88 | 1009.6 |
| 20260507053814 | 56 | 225 | 5.0 | 0.0 | 0.00 | 0.00 | 0.00 | 87 | 1009.8 |
| 20260507053336 | 56 | 221 | 6.0 | 0.0 | 0.00 | 0.00 | 0.00 | 87 | 1010.0 |
| 20260507052830 | 56 | 212 | 6.0 | 0.0 | 0.00 | 0.00 | 0.00 | 87 | 1010.0 |
| 20260507052329 | 57 | 225 | 6.0 | 0.0 | 0.00 | 0.00 | 0.00 | 86 | 1010.0 |
| 20260507051835 | 57 | 206 | 7.0 | 0.0 | 0.00 | 0.00 | 0.00 | 86 | 1009.7 |
| 20260507051329 | 56 | 261 | 5.0 | 0.0 | 0.00 | 0.00 | 0.00 | 87 | 1010.0 |
| 20260507050831 | 56 | 249 | 4.0 | 0.0 | 0.00 | 0.00 | 0.00 | 89 | 1009.8 |
| 20260507050329 | 56 | 250 | 6.0 | 0.0 | 0.00 | 0.00 | 0.00 | 90 | 1010.2 |
| 20260507045818 | 57 | 213 | 5.0 | 0.0 | 0.00 | 0.00 | 0.00 | 90 | 1009.6 |
| 20260507045315 | 57 | 234 | 4.0 | 0.0 | 0.00 | 0.00 | 0.00 | 90 | 1009.3 |
| 20260507044833 | 57 | 234 | 5.0 | 0.0 | 0.00 | 0.00 | 0.00 | 90 | 1009.5 |
| 20260507044334 | 57 | 234 | 6.0 | 0.0 | 0.00 | 0.00 | 0.00 | 90 | 1009.7 |
| 20260507043828 | 57 | 207 | 6.0 | 0.0 | 0.00 | 0.00 | 0.00 | 90 | 1009.4 |
| 20260507043328 | 57 | 218 | 5.0 | 0.0 | 0.00 | 0.00 | 0.00 | 90 | 1009.6 |
| 20260507042825 | 57 | 225 | 4.0 | 0.0 | 0.00 | 0.00 | 0.00 | 90 | 1009.6 |
| 20260507042332 | 57 | 254 | 4.0 | 0.0 | 0.00 | 0.00 | 0.00 | 90 | 1009.3 |
| 20260507041821 | 57 | 254 | 5.0 | 0.0 | 0.00 | 0.00 | 0.00 | 90 | 1009.3 |
| 20260507041317 | 57 | 235 | 5.0 | 0.0 | 0.00 | 0.00 | 0.00 | 90 | 1009.4 |
| 20260507040817 | 57 | 242 | 6.0 | 0.0 | 0.00 | 0.00 | 0.00 | 90 | 1009.3 |
| 20260507040326 | 57 | 238 | 6.0 | 0.0 | 0.00 | 0.00 | 0.00 | 90 | 1009.0 |
| 20260507035827 | 57 | 254 | 6.0 | 0.0 | 0.00 | 0.00 | 0.33 | 90 | 1009.0 |
| 20260507035324 | 57 | 208 | 6.0 | 0.0 | 0.00 | 0.00 | 0.33 | 89 | 1008.7 |
| 20260507034842 | 57 | 242 | 7.0 | 0.0 | 0.00 | 0.00 | 0.33 | 89 | 1008.9 |
| 20260507034315 | 57 | 211 | 10.0 | 0.0 | 0.00 | 0.00 | 0.33 | 89 | 1008.9 |
| 20260507033834 | 57 | 157 | 11.0 | 0.0 | 0.00 | 0.00 | 0.33 | 88 | 1008.8 |
| 20260507033331 | 58 | 187 | 9.0 | 0.0 | 0.00 | 0.00 | 0.33 | 88 | 1009.5 |
| 20260507032825 | 58 | 187 | 7.0 | 0.0 | 0.00 | 0.00 | 0.33 | 88 | 1010.2 |
| 20260507032322 | 57 | 243 | 7.0 | 0.0 | 0.00 | 0.00 | 0.33 | 89 | 1010.8 |
| 20260507031841 | 57 | 234 | 8.0 | 0.0 | 0.00 | 0.00 | 0.33 | 89 | 1010.5 |
| 20260507031317 | 57 | 200 | 9.0 | 0.0 | 0.00 | 0.00 | 0.33 | 89 | 1010.3 |
| 20260507030835 | 57 | 205 | 10.0 | 0.0 | 0.00 | 0.00 | 0.33 | 89 | 1010.5 |
| 20260507030331 | 57 | 190 | 10.0 | 0.0 | 0.00 | 0.00 | 0.33 | 89 | 1010.2 |
| 20260507025827 | 57 | 234 | 8.0 | 0.0 | 0.00 | 0.00 | 0.33 | 90 | 1010.5 |
| 20260507025323 | 57 | 229 | 8.0 | 0.0 | 0.00 | 0.00 | 0.33 | 90 | 1010.5 |
| 20260507024842 | 57 | 227 | 8.0 | 0.0 | 0.00 | 0.00 | 0.33 | 90 | 1010.3 |
| 20260507024333 | 57 | 198 | 9.0 | 0.0 | 0.00 | 0.00 | 0.33 | 90 | 1009.9 |
| 20260507023831 | 57 | 204 | 9.0 | 0.0 | 0.00 | 0.00 | 0.33 | 90 | 1009.7 |